User: anonymous   Login
Location: Unspecified
(0.0000°N, 0.0000°E)
Time: 00:35:15
(UTC+02:00)
Language:

Centaur AC-64 - Orbit

View from above orbital plane
View from above orbital plane
View from above satellite
View from above satellite

Ground track
Ground track

The orbit data is extracted from the following two-line orbital elements,

1 15874U 85055B   16267.87940947  .00003408  00000-0  12058-2 0  9991
2 15874  23.1242 245.4625 6581524 290.9386  13.1731  3.18493835321946
Epoch (UTC): 23 September 2016 21:06:20
Eccentricity: 0.6581524
inclination: 23.1242°
perigee height: 292 km
apogee height: 25978 km
right ascension of ascending node: 245.4625°
argument of perigee: 290.9386°
revolutions per day: 3.18493835
mean anomaly at epoch: 13.1731°
orbit number at epoch: 32194

The dashed part of the orbit path shows where the satellite is in the earth's shadow,  

DLR